STARLINK-6360, 57235

Orbit data source: Space-Track

STARLINK-6360, 57235 is a payload satellite owned by SpaceX/Seattle (US) in LEO that was launched on Fri, 07 Jul 2023 UTC via an FALCON 9 launch vehicle from the Air Force Western Test Range (AFWTR). Payload-class satellites include a variety of spacecraft equipped with specific instruments for various scientific and technological missions. These include communications satellites like Starlink; space stations such as the ISS; scientific satellites like the Hubble; Earth observation satellites from companies like Planet Labs, Umbra, and HawkEye 360; GPS; miniature CubeSats for education and research; and military/defense satellites.

Loading next visibility...
Identifier
57235, 2023-094T
Orbit
LEO
Country
Flag of USUS
Related business
Manufacturer
SpaceX/Seattle
Mission
Operational Commercial Communications
Bus & Motor
STARLINK, Unknown motor
Mass
305 kg wet, ~290 kg dry
Launch date (UTC)
2023-07-07 (3 years ago)
Launch vehicle
FALCON 9
Launch site
Air Force Western Test Range (AFWTR)
Object type
Payload
Rocket body
Debris
Shape & HBR
Box + 1 Pan, 10.1 m
Radar Cross Section
11.087 m², Large (>1 m²)

Expand to show TLE details & history
Last TLE update: 2 days ago

TLE from 2 days ago
0 STARLINK-6360
1 57235U 23094T   26166.36233456 -.00000488  00000-0 -82163-5 0  9990
2 57235  43.0080 199.0866 0001512 271.1977  88.8702 15.27575110162052
Epoch: 2026-06-15T08:41Z
TLE epoch observation values (Epoch: 2026-06-15T08:41:45.705Z)
Latitude
-0.00001°
Longitude
164.99634°
Altitude
482.82 km
Speed
7.626 km/s
True Right ascension
13h 16m 20s
True Declination
0° 00' 00"
Sunlit
Object was in full shadow at epoch
Visualization orbit readout
Latitude
Unknown
Longitude
Unknown
Altitude
Unknown
Speed
Unknown
Apparent Right ascension
Unknown
Apparent Declination
Unknown
Sunlit
N/A
Visualization observer readout
Local Sidereal Time
14:32:36
Azimuth
Unknown
Elevation
Unknown
Doppler factor
Unknown
Orbital elements
Apogee altitude
486.045 km
Perigee altitude
483.97 km
Semi-major axis
6,863.145 km
Eccentricity
0.00015
Inclination
43.008°
RAAN
199.0866°
Arg. of periapsis
271.1977°
True anomaly
88.88752°
Mean anomaly
88.8702°
Eccentric anomaly
88.87886°
Mean motion
3.81732 °/min
Orbital period
94.31 mins
BSTAR
-0.0000082163
Loading maneuver chart data...
Computing Atmospheric mass density...
Loading historical data...
Loading historical data...
Loading historical data...
Loading historical data...
Loading historical data...
Loading historical data...
Loading historical data...

Documentation

Showing up to 5 results
|